Location: Centerville
(32.8776°N, 96.6203°W)
Time: 12:46:51
(UTC+00:00)

Cosmos 2360 Rocket - Pass Details

Date: 17 June 2021
Orbit: 835 x 843 km, 71.0° (Epoch: 31 July)

Event Time Altitude Azimuth Distance (km) Brightness Sun altitude
Exits shadow 04:26:30 - 230° (SW) 2,972 5.0 -26.8°
Reaches altitude 10° 04:28:04 10° 237° (WSW) 2,450 4.6 -26.9°
Maximum altitude 04:32:57 30° 298° (WNW) 1,467 3.9 -27.5°
Drops below altitude 10° 04:37:51 10° 358° (N) 2,456 5.4 -28.0°
Sets 04:40:36 0° 9° (N) 3,392 6.1 -28.2°
